Temperature
23 21 21 21 21 22 22 22 21 21 21 20 19 18 17 17 17 17 17 17 18 18 18 18 18 18 18 18 18 18 18 18 18 17 17 17 17 16 16 16 15 15 15 15
21 21 22 23 23 22 21 21 21 21 21 20 19 18 18 17 17 17 17 18 18 18 18 18 18 18 18 18 18 18 18 18 18 17 17 17 17 16 16 16 15 15 15 14
22 23 24 24 23 23 22 21 21 21 20 19 19 19 18 17 17 17 18 18 18 18 18 18 18 18 18 18 18 18 18 18 18 17 17 17 17 16 16 16 15 15 14 14
22 23 24 24 24 23 22 22 22 21 19 18 19 18 18 17 17 17 17 17 18 18 18 18 19 18 18 18 18 18 18 18 18 17 17 17 17 17 16 16 15 15 14 14
23 24 25 24 24 24 22 21 20 19 18 18 18 18 17 17 17 17 17 18 18 18 19 19 19 19 19 19 18 18 18 18 18 17 17 17 17 16 16 15 15 14 14 14
23 24 24 24 24 23 21 20 18 16 16 18 18 18 18 17 17 18 17 18 19 19 19 19 19 19 19 19 18 18 18 18 18 17 17 17 16 16 16 15 15 14 14 14
23 23 23 23 23 22 21 19 18 19 17 18 18 17 17 18 18 18 18 19 19 20 19 19 19 19 19 19 19 19 19 18 18 18 17 17 16 16 16 15 15 14 14 14
22 22 23 23 23 22 21 20 19 20 19 18 18 18 18 19 20 20 20 20 20 20 20 20 20 20 19 19 19 19 19 19 18 18 17 17 16 16 16 15 15 14 14 14
21 22 23 23 23 22 20 19 18 17 18 18 18 18 19 19 19 19 19 19 20 20 21 20 20 20 20 20 20 20 19 19 18 18 18 17 17 16 16 15 15 14 14 14
21 22 23 23 23 21 20 17 16 17 18 19 19 19 19 20 20 18 18 19 20 21 21 21 21 21 21 21 20 20 20 19 19 18 18 17 17 16 16 15 15 14 14 14
21 21 22 22 22 22 20 19 16 15 16 17 18 19 19 19 19 19 18 20 21 21 22 22 22 21 21 21 21 20 20 19 19 18 18 17 17 16 16 15 15 15 14 14
20 19 20 21 21 21 21 19 16 18 18 16 17 18 20 19 19 19 20 21 22 22 22 22 22 22 21 21 21 21 20 20 19 19 18 18 17 17 16 16 15 15 15 14
19 19 20 21 20 21 21 19 17 15 15 15 16 19 20 19 19 20 21 22 22 23 23 23 22 22 22 22 21 21 20 20 20 19 18 18 17 17 16 16 15 15 15 14
19 18 19 20 20 20 21 20 17 16 16 16 16 18 19 19 18 19 20 22 22 23 23 23 23 23 22 22 22 21 21 20 20 19 19 18 18 17 17 16 16 15 15 15
19 19 19 19 20 20 21 21 19 18 17 17 18 18 19 18 18 19 20 21 21 22 23 23 23 23 22 22 22 22 21 21 20 19 19 18 18 17 17 16 16 16 16 15
17 19 19 20 21 20 20 20 20 19 19 18 18 18 18 18 18 18 19 20 21 22 22 23 23 23 23 22 22 22 21 21 20 20 19 19 18 17 17 17 16 16 16 15
16 17 18 19 19 20 20 20 20 19 18 18 18 18 17 17 16 17 18 19 21 22 22 23 23 23 23 23 22 22 21 21 20 20 19 19 18 17 17 17 16 16 16 16
15 16 15 17 19 20 19 19 19 18 17 17 16 16 16 16 17 17 17 18 20 21 22 22 23 23 23 22 22 21 21 20 20 20 19 19 18 18 17 17 16 16 16 16
14 15 15 15 17 18 19 18 18 18 18 17 16 16 16 17 18 17 17 18 19 20 21 22 22 22 22 22 21 21 20 20 20 19 19 19 18 18 17 17 17 16 16 16
14 14 15 15 18 18 19 18 18 18 18 17 15 15 16 17 16 16 17 18 19 20 21 21 21 21 21 21 20 20 20 19 19 19 19 18 18 17 17 17 16 16 16 15
16 15 15 15 16 17 18 17 18 18 17 17 16 16 16 15 15 16 17 18 19 20 20 20 21 21 20 20 20 19 19 19 19 18 18 17 17 17 16 16 16 15 15 15
15 15 15 14 16 17 17 17 17 16 16 16 16 16 16 15 16 16 17 18 18 19 19 19 20 20 19 19 19 18 18 18 18 17 17 17 16 16 16 15 15 15 14 14
14 14 14 14 15 16 16 16 17 17 16 16 16 16 16 16 16 16 16 17 17 18 18 18 18 18 18 18 18 18 17 17 17 16 16 16 15 15 15 15 14 14 14 13
14 13 13 13 14 15 16 16 16 16 16 16 16 16 16 15 15 16 16 16 16 16 16 17 17 17 17 17 16 16 16 16 16 16 15 15 15 14 14 14 14 13 13 13
15 13 13 14 14 15 16 16 16 16 16 16 16 15 15 15 15 15 15 15 15 15 15 15 15 15 15 15 15 15 15 15 15 14 14 14 14 13 13 13 13 12 12 12
13 13 13 14 15 14 15 16 16 16 16 15 15 15 15 15 15 15 15 14 14 14 14 14 14 14 14 14 14 14 13 13 13 13 13 13 13 12 12 12 12 12 11 11
Wind_Speed
1 2 5 9 9 8 6 6 9 6 0 2 3 3 5 5 5 5 4 5 5 5 5 7 8 8 8 8 8 8 8 7 7 5 5 4 3 2 2 3 5 6 7 7
3 6 10 6 4 6 6 6 6 2 1 1 1 3 4 6 6 6 6 6 6 5 4 6 8 8 9 10 9 8 8 8 7 5 4 3 4 3 2 2 3 5 6 6
7 9 4 4 5 2 4 6 5 4 1 3 2 5 2 3 3 4 5 5 6 8 8 8 9 9 9 10 11 10 9 8 7 6 5 5 4 4 2 2 1 2 4 5
8 7 4 4 4 3 5 4 4 4 2 3 3 4 5 3 3 6 7 7 7 7 8 9 9 10 10 10 9 9 9 8 7 8 7 7 5 4 4 3 2 1 2 3
7 3 2 5 5 4 3 4 5 4 4 2 3 0 7 1 5 8 9 9 9 9 9 10 11 11 10 10 10 9 9 8 7 7 8 7 5 3 3 2 2 1 0 1
8 4 4 4 1 2 5 6 6 6 5 2 2 1 6 4 7 6 7 10 10 10 9 9 8 8 8 8 9 9 9 7 7 8 8 8 8 6 5 3 3 2 1 1
5 4 3 3 3 3 4 5 5 5 5 5 2 2 8 7 7 8 8 10 10 10 10 9 10 10 10 10 10 10 10 8 8 8 8 8 8 8 7 6 5 4 2 2
3 6 4 3 5 6 4 6 6 4 4 5 3 5 8 6 5 5 6 7 8 9 10 11 11 11 11 11 10 10 11 9 9 9 8 7 8 6 5 6 5 5 4 4
8 7 3 2 3 7 5 3 5 6 2 2 6 7 8 2 2 3 5 6 8 9 10 10 10 10 10 11 11 12 11 10 9 9 8 8 8 7 7 6 5 4 4 3
8 5 3 1 4 5 4 8 6 5 3 3 6 5 5 6 5 5 6 8 9 8 9 10 10 11 10 11 10 10 11 11 10 10 9 8 8 8 7 6 6 6 5 4
5 4 3 1 3 5 5 5 5 5 4 5 3 7 7 9 8 9 10 11 11 11 12 11 11 11 10 9 9 10 11 10 10 10 9 9 8 8 7 7 7 7 6 6
4 5 2 4 2 3 5 7 8 5 4 4 3 8 6 7 7 8 9 10 10 11 11 11 10 9 9 10 10 11 11 11 11 11 10 10 8 8 8 8 8 7 7 7
6 5 1 5 5 1 2 4 5 6 5 5 4 8 4 2 3 6 8 8 8 9 9 8 8 9 10 11 11 11 12 12 10 10 10 9 9 9 10 9 8 7 7 7
6 4 6 7 7 5 3 4 6 6 5 6 8 9 9 6 6 7 7 8 8 8 9 9 9 10 10 10 11 11 11 10 10 10 11 11 11 11 11 9 8 8 8 8
5 4 5 6 5 3 5 5 7 8 8 9 9 9 11 8 7 7 6 6 6 7 8 10 11 10 10 10 10 10 10 10 10 11 12 12 11 10 9 9 9 8 8 9
3 4 2 3 2 3 4 6 6 7 6 7 7 9 7 5 3 3 4 5 6 7 9 10 10 10 11 12 11 11 11 11 11 12 12 10 9 9 9 9 8 8 8 8
3 5 3 4 3 2 6 7 6 5 5 6 8 7 3 3 3 3 3 2 3 5 6 7 9 10 11 12 12 13 12 10 10 11 9 9 9 9 9 9 8 9 9 8
6 5 3 1 1 5 7 1 2 4 4 4 5 4 3 3 1 3 4 3 3 2 2 4 6 7 6 7 8 7 8 9 10 9 8 8 8 8 7 7 8 8 7 7
4 6 4 3 3 6 5 1 2 2 4 3 3 4 3 2 2 5 7 5 3 3 2 1 2 3 4 5 7 8 7 7 8 9 9 9 9 8 8 8 9 7 6 7
5 5 5 4 3 6 6 1 1 3 4 3 3 2 1 2 2 3 7 7 7 6 4 3 3 4 4 4 6 8 7 7 8 9 8 8 8 9 9 9 8 6 6 8
3 3 4 4 5 8 5 1 3 3 6 2 1 0 2 2 2 1 4 6 7 8 7 6 5 5 3 4 7 6 5 7 6 4 4 4 6 7 7 6 5 5 6 6
7 5 5 5 3 7 2 3 5 6 1 1 2 2 4 4 3 4 6 8 9 9 9 7 6 6 5 5 6 5 4 4 3 4 3 4 4 5 4 5 5 5 6 6
6 7 6 8 7 5 2 4 2 3 2 2 2 2 5 5 6 6 7 9 10 9 8 7 7 7 7 5 4 3 1 1 3 3 2 2 2 3 3 4 4 4 4 5
3 3 3 4 7 5 4 3 2 2 2 3 5 5 7 7 7 7 8 8 9 9 8 7 8 9 8 6 5 3 3 3 3 2 0 0 1 2 3 3 3 4 5 6
5 5 3 5 6 3 3 2 3 5 7 8 8 7 7 8 8 8 9 8 7 7 6 7 8 8 7 6 6 6 4 4 3 2 1 1 1 2 3 3 4 5 6 6
4 6 7 7 7 5 3 3 6 9 9 9 10 9 7 8 9 9 8 6 5 6 6 7 7 7 6 6 7 6 4 4 4 3 2 2 2 2 2 3 5 7 9 12
Wind_Direction
37 43 256 242 213 224 243 249 268 275 266 164 233 239 214 196 205 211 206 194 185 178 167 167 168 170 162 157 156 158 153 148 140 133 130 128 132 129 124 148 152 150 145 138
1 268 248 255 239 220 225 248 258 281 51 128 280 276 221 201 212 215 211 200 192 184 169 168 163 163 167 166 167 163 161 158 158 148 138 132 129 130 126 120 142 160 158 153
221 252 290 304 307 274 245 213 226 213 71 46 2 320 251 229 220 224 227 208 197 193 185 182 173 172 169 172 175 173 169 163 159 140 117 100 86 76 86 110 143 175 176 175
237 261 271 281 274 217 259 249 185 142 113 330 32 301 287 234 239 227 222 213 209 202 190 185 180 178 180 182 176 170 167 163 158 150 148 148 153 164 183 172 172 168 175 184
250 254 289 281 263 193 199 58 80 87 102 21 16 267 291 283 247 239 221 214 211 203 193 191 189 187 186 178 173 170 163 162 160 161 161 152 149 156 142 130 145 155 150 209
250 246 226 228 319 120 129 77 60 54 62 349 294 214 285 241 227 229 214 209 205 200 194 194 189 180 178 171 169 166 164 169 167 166 164 163 162 159 153 160 172 186 209 249
294 281 229 164 107 59 91 87 26 358 3 269 264 238 256 252 230 214 208 204 199 194 190 188 184 183 180 177 176 173 172 178 176 171 172 174 172 170 175 180 186 185 191 210
238 283 241 192 176 173 176 144 156 211 242 285 302 252 259 260 244 219 205 197 188 188 190 191 190 188 186 184 182 179 182 186 180 178 180 177 174 173 182 184 183 189 198 209
195 245 270 202 157 137 138 149 150 131 138 301 289 288 302 272 210 200 186 181 194 196 195 195 191 190 188 188 188 189 188 189 186 184 178 179 180 181 187 187 185 192 202 209
175 228 271 239 92 62 130 141 105 119 147 273 296 285 256 256 221 194 193 197 204 202 201 201 198 197 197 196 191 187 190 193 188 183 185 189 189 191 189 182 193 201 206 204
152 183 291 10 166 169 126 112 109 114 149 165 259 276 230 222 214 200 206 204 200 200 205 206 205 202 198 192 186 188 192 189 186 188 188 185 189 190 188 193 203 204 204 203
149 136 240 266 267 158 166 166 148 153 207 181 195 268 273 228 223 207 211 210 202 202 205 205 202 194 192 194 193 193 193 194 194 188 185 190 189 186 193 203 208 203 207 209
138 124 66 345 345 3 167 153 145 126 121 156 183 263 298 308 258 228 219 215 204 202 200 198 193 195 198 197 196 195 196 199 192 182 184 188 191 193 202 208 206 203 209 212
122 135 174 203 223 210 215 182 154 139 158 197 221 252 289 304 280 258 236 222 203 200 200 198 197 199 200 198 196 195 198 192 184 183 187 194 200 202 206 207 204 205 208 213
117 182 218 237 238 205 223 226 187 190 196 197 231 235 259 268 264 259 243 221 199 200 201 204 206 202 197 197 197 193 195 189 185 185 193 203 203 201 202 204 207 208 209 217
116 172 186 280 268 223 252 251 223 216 213 221 246 261 258 279 277 268 243 199 197 210 211 210 208 200 198 199 197 192 192 188 181 188 200 202 196 199 204 208 208 208 214 218
138 141 139 262 316 21 269 247 213 205 210 199 222 246 307 323 327 312 295 226 203 214 211 209 208 205 203 200 192 192 190 174 176 188 195 192 193 201 208 208 206 213 218 219
136 124 138 204 60 236 251 308 172 188 235 235 252 269 276 263 300 36 23 359 327 301 219 209 206 206 199 183 178 175 160 166 178 187 193 191 191 202 203 201 211 218 217 220
138 133 125 138 212 275 293 230 164 191 277 238 238 271 265 243 72 31 16 10 351 329 309 271 195 182 161 164 160 150 156 168 180 194 200 198 195 200 201 208 217 216 214 224
70 99 124 144 185 242 253 226 160 119 285 257 208 242 284 68 76 335 348 1 8 12 15 32 74 91 110 136 139 148 164 171 196 207 208 201 196 201 209 216 218 213 215 229
93 85 139 169 217 259 257 210 112 170 249 270 179 155 76 89 161 268 356 21 27 27 26 43 67 79 94 121 135 155 166 196 210 197 183 185 196 207 215 217 217 218 223 233
171 160 177 154 199 257 226 143 183 218 250 74 72 84 97 98 73 53 48 40 36 36 32 45 66 62 63 93 119 139 184 211 158 145 166 193 202 212 215 213 223 223 224 236
192 189 185 188 212 244 227 218 233 174 157 135 118 111 108 90 73 60 50 44 39 36 32 38 56 57 52 65 100 128 239 125 121 135 180 214 219 221 217 215 227 232 230 241
240 150 158 241 262 257 253 241 228 181 167 133 119 113 105 97 85 72 61 50 45 39 35 39 55 60 48 39 48 46 35 73 101 118 184 219 231 252 246 238 235 239 244 249
217 163 187 251 270 296 288 212 140 115 105 97 95 97 103 102 92 83 70 53 45 44 38 49 61 63 54 46 44 37 44 73 78 61 23 352 305 280 277 269 253 249 247 244
195 181 186 228 226 196 226 156 130 118 111 110 106 92 84 92 90 81 72 61 56 55 53 56 57 59 50 46 41 28 33 65 76 50 14 352 325 309 300 297 298 269 262 271
Height
1504 1508 1510 1506 1504 1503 1504 1509 1510 1503 1497 1500 1502 1502 1501 1500 1501 1502 1502 1504 1506 1508 1512 1515 1518 1521 1525 1528 1531 1534 1537 1540 1542 1544 1547 1549 1551 1553 1554 1555 1555 1556 1556 1556
1508 1509 1498 1495 1496 1499 1503 1508 1506 1500 1497 1500 1503 1502 1499 1499 1499 1499 1501 1503 1505 1507 1510 1513 1517 1520 1524 1527 1530 1533 1536 1539 1541 1544 1546 1548 1550 1552 1553 1554 1555 1555 1556 1555
1507 1499 1492 1494 1495 1499 1500 1504 1502 1502 1500 1501 1504 1505 1501 1499 1499 1499 1500 1501 1503 1505 1508 1512 1515 1518 1522 1525 1528 1531 1535 1538 1541 1543 1546 1548 1549 1551 1552 1553 1554 1554 1555 1555
1502 1493 1492 1493 1494 1494 1501 1493 1494 1499 1507 1513 1510 1520 1503 1499 1499 1498 1498 1499 1501 1503 1506 1510 1513 1516 1519 1523 1527 1530 1534 1537 1540 1542 1545 1547 1548 1549 1550 1551 1552 1553 1553 1553
1498 1491 1491 1494 1491 1490 1494 1493 1497 1503 1509 1516 1514 1519 1510 1500 1500 1496 1495 1496 1498 1501 1504 1507 1511 1514 1518 1522 1525 1529 1533 1536 1539 1541 1544 1546 1547 1548 1549 1550 1551 1551 1552 1552
1491 1487 1488 1487 1486 1488 1492 1498 1504 1512 1518 1525 1516 1520 1514 1502 1495 1491 1491 1493 1495 1498 1502 1506 1509 1513 1517 1520 1524 1527 1531 1534 1537 1540 1542 1544 1546 1546 1547 1548 1549 1549 1550 1550
1494 1488 1484 1484 1489 1491 1494 1508 1525 1526 1534 1529 1516 1518 1511 1490 1486 1486 1487 1489 1492 1496 1499 1503 1507 1510 1514 1518 1522 1526 1529 1532 1535 1538 1540 1542 1544 1545 1545 1546 1547 1547 1548 1548
1503 1501 1485 1483 1485 1492 1496 1504 1524 1532 1535 1528 1516 1517 1499 1483 1482 1482 1484 1486 1490 1493 1497 1500 1504 1508 1512 1516 1520 1523 1527 1530 1533 1535 1538 1540 1542 1543 1543 1544 1545 1545 1546 1546
1501 1499 1482 1480 1480 1484 1496 1503 1504 1521 1525 1530 1521 1509 1492 1481 1482 1482 1484 1485 1488 1490 1494 1497 1502 1505 1510 1514 1517 1520 1524 1528 1530 1533 1536 1538 1539 1540 1541 1542 1543 1543 1543 1544
1488 1496 1484 1480 1480 1485 1489 1499 1511 1521 1530 1532 1520 1512 1503 1485 1482 1482 1483 1484 1485 1489 1492 1495 1499 1503 1507 1511 1515 1519 1522 1525 1528 1531 1533 1535 1537 1538 1539 1540 1540 1541 1541 1541
1483 1493 1489 1485 1486 1488 1494 1500 1508 1519 1521 1530 1529 1514 1484 1480 1477 1478 1479 1480 1482 1486 1489 1493 1496 1500 1505 1509 1512 1515 1518 1521 1525 1528 1530 1532 1534 1535 1536 1537 1538 1538 1539 1539
1482 1492 1497 1489 1482 1481 1485 1492 1504 1513 1518 1523 1525 1511 1474 1474 1473 1474 1475 1477 1479 1483 1486 1490 1494 1497 1501 1505 1508 1512 1515 1518 1521 1524 1527 1529 1531 1532 1533 1534 1535 1536 1536 1537
1481 1492 1503 1499 1495 1486 1486 1489 1496 1505 1515 1524 1524 1505 1473 1472 1472 1472 1473 1474 1476 1479 1483 1487 1490 1493 1497 1501 1504 1508 1511 1514 1517 1520 1523 1525 1527 1528 1530 1531 1532 1533 1533 1534
1476 1489 1497 1502 1496 1487 1486 1487 1493 1500 1512 1516 1510 1495 1477 1472 1472 1470 1470 1471 1473 1476 1479 1482 1485 1488 1492 1496 1500 1503 1506 1510 1513 1516 1519 1521 1523 1525 1526 1528 1529 1529 1530 1531
1475 1486 1486 1485 1481 1481 1482 1483 1486 1492 1494 1499 1491 1488 1475 1471 1469 1467 1466 1468 1469 1472 1475 1477 1480 1483 1487 1491 1495 1498 1502 1505 1508 1511 1514 1516 1519 1521 1522 1524 1525 1526 1527 1527
1476 1483 1484 1483 1478 1479 1481 1479 1479 1481 1482 1485 1483 1480 1468 1467 1466 1464 1464 1464 1465 1467 1470 1473 1476 1479 1482 1486 1489 1493 1497 1501 1504 1507 1510 1512 1515 1516 1518 1520 1521 1522 1523 1523
1479 1483 1489 1491 1483 1481 1487 1477 1476 1477 1476 1477 1479 1473 1468 1467 1465 1464 1463 1462 1462 1463 1466 1469 1471 1474 1477 1481 1484 1488 1492 1496 1499 1502 1505 1508 1510 1512 1514 1516 1517 1518 1518 1519
1479 1485 1492 1494 1490 1496 1481 1470 1470 1473 1473 1472 1470 1468 1468 1467 1466 1465 1464 1462 1462 1463 1464 1466 1468 1471 1474 1478 1481 1485 1489 1492 1495 1498 1501 1504 1506 1508 1510 1511 1512 1513 1514 1514
1475 1483 1493 1499 1497 1490 1476 1471 1471 1474 1473 1469 1469 1467 1465 1464 1464 1465 1465 1464 1464 1464 1464 1465 1467 1470 1472 1475 1479 1482 1485 1489 1492 1495 1497 1500 1502 1504 1505 1506 1507 1508 1509 1509
1477 1479 1490 1496 1495 1495 1477 1468 1468 1472 1475 1466 1466 1465 1465 1463 1468 1469 1466 1465 1465 1465 1465 1466 1467 1469 1471 1474 1477 1480 1483 1486 1488 1491 1494 1496 1498 1499 1500 1501 1502 1503 1503 1503
1481 1485 1489 1493 1493 1484 1469 1467 1468 1481 1475 1465 1465 1465 1465 1466 1468 1469 1467 1465 1465 1465 1466 1467 1467 1468 1470 1473 1475 1477 1480 1483 1486 1488 1490 1492 1493 1495 1496 1497 1497 1497 1497 1497
1479 1485 1489 1493 1494 1486 1466 1466 1470 1469 1465 1464 1465 1466 1466 1467 1467 1467 1467 1466 1465 1466 1467 1468 1468 1468 1469 1471 1473 1476 1478 1480 1483 1485 1487 1488 1489 1490 1491 1491 1492 1492 1492 1491
1474 1474 1476 1479 1477 1466 1464 1464 1464 1464 1464 1465 1466 1467 1467 1468 1468 1469 1468 1468 1468 1469 1469 1469 1469 1469 1470 1471 1473 1475 1477 1478 1480 1482 1483 1484 1485 1486 1486 1486 1486 1486 1486 1485
1468 1468 1470 1471 1465 1462 1461 1461 1462 1463 1464 1465 1466 1468 1469 1469 1470 1471 1471 1471 1471 1471 1472 1472 1471 1470 1471 1472 1474 1475 1475 1477 1478 1479 1480 1480 1481 1481 1481 1481 1481 1480 1479 1478
1463 1467 1468 1468 1462 1460 1458 1459 1460 1462 1464 1466 1468 1470 1471 1472 1472 1472 1472 1473 1474 1475 1475 1474 1473 1473 1473 1474 1474 1475 1475 1476 1476 1477 1477 1477 1477 1477 1476 1476 1475 1474 1473 1472
1462 1463 1465 1463 1457 1458 1458 1458 1460 1462 1465 1468 1470 1472 1473 1474 1474 1475 1476 1477 1478 1477 1477 1476 1476 1475 1475 1475 1475 1475 1475 1475 1475 1474 1474 1473 1473 1472 1471 1470 1469 1468 1467 1465